Location: Seattle
(47.6064°N, 122.3308°W)
Time: 02:22:26
(UTC-08:00)

N. Korean satellite - Pass Details

Date: 28 October 2020
Orbit: 453 x 503 km, 97.2° (Epoch: 03 December)

Event Time Altitude Azimuth Distance (km) Brightness Sun altitude
Rises 05:48:32 0° 29° (NNE) 2,481 10.6 -20.7°
Reaches altitude 10° 05:51:10 10° 51° (NE) 1,598 9.9 -20.2°
Maximum altitude 05:53:24 16° 92° (E) 1,254 9.7 -19.9°
Drops below altitude 10° 05:55:38 10° 133° (SE) 1,588 9.8 -19.5°
Sets 05:58:14 0° 155° (SSE) 2,457 10.5 -19.1°
